Regional Weather Roundup
Issued by NWS

Home | Current Version | Previous Version | Text Only | Print | Product List | Glossary On
Versions: 1 2 3 4 5 6 7 8 9 10 11 12 13 14 15 16 17 18 19 20 21 22 23 24 25 26 27 28 29 30 31 32 33 34 35 36 37 38 39 40 41 42 43 44 45 46 47 48 49 50
000
ASUS45 KBOI 272210
RWRID
WEATHER ROUNDUP FOR IDAHO
NATIONAL WEATHER SERVICE BOISE ID
300 PM MST FRI FEB 27 2015

NOTE: "FAIR" INDICATES FEW OR NO CLOUDS BELOW 12000 FEET
WITH NO SIGNIFICANT WEATHER AND/OR OBSTRUCTIONS TO VISIBILITY

IDZ012-014-272300-
SOUTHWEST IDAHO


CITY           SKY/WX    TMP DP  RH WIND       PRES   REMARKS
BOISE          MOSUNNY   51  29  42 SE14      29.65F
CALDWELL       MOSUNNY   54  28  37 SE13      29.66F
MOUNTAIN HOME  MOSUNNY   50  30  45 E17       29.65F
$$

IDZ016-017-272300-
SOUTHCENTRAL IDAHO


CITY           SKY/WX    TMP DP  RH WIND       PRES   REMARKS
BURLEY         MOSUNNY   44  29  55 NE12      29.69F
JEROME         MOSUNNY   45  26  47 NE8       29.68F
TWIN FALLS     MOSUNNY   47  28  47 N6        29.67F
$$

IDZ019>023-272300-
SOUTHEAST IDAHO


CITY           SKY/WX    TMP DP  RH WIND       PRES   REMARKS
IDAHO FALLS    CLOUDY    35  24  64 N5        29.75F WCI  31
POCATELLO      PTSUNNY   39  26  59 N7        29.74F WCI  34
REXBURG        CLOUDY    31  24  75 CALM      29.74F
$$

IDZ006-010-011-018-031-032-272300-
CENTRAL IDAHO MOUNTAINS


CITY           SKY/WX    TMP DP  RH WIND       PRES   REMARKS
MCCALL         PTSUNNY   37  25  61 N5        29.65F WCI  33
HAILEY         CLOUDY    36  25  64 SE7       29.70F WCI  30
STANLEY          N/A     36  14  40 N5        29.64F WCI  32
SALMON         CLOUDY    37  21  52 NE5       29.71F WCI  34
CHALLIS        CLOUDY    40  19  43 N6        29.66F
$$

IDZ002-004-006-007-026-272300-
NORTHERN IDAHO


CITY           SKY/WX    TMP DP  RH WIND       PRES   REMARKS
LEWISTON       MOSUNNY   54  35  48 E8        29.70F
LOWELL           N/A     52  31  44 CALM      29.70F
COEUR D`ALENE  MOSUNNY   48  25  40 NE14G23   29.76F
MULLAN PASS    MOSUNNY   24  15  68 CALM      29.71F
$$


USA.gov is the U.S. government's official web portal to all federal, state and local government web resources and services.